Regional Weather Roundup
Issued by NWS Northern Indiana

Home | Current Version | Previous Version | Graphics & Text | Print | Product List | Glossary On
Versions: 1 2 3 4 5 6 7 8 9 10 11 12 13 14 15 16 17 18 19 20 21 22 23 24 25 26 27 28 29 30 31 32 33 34 35 36 37 38 39 40 41 42 43 44 45 46 47 48 49 50
000
ASUS43 KIWX 191510
RWRIWX

KIWX WEATHER ROUNDUP
NATIONAL WEATHER SERVICE NORTHERN INDIANA
1000 AM EST SUN FEB 19 2017

NOTE: "FAIR" INDICATES FEW OR NO CLOUDS BELOW 12,000 FEET WITH NO
SIGNIFICANT WEATHER AND/OR OBSTRUCTIONS TO VISIBILITY.

* THESE STATIONS ARE NOT UNDER NWS QUALITY CONTROL. THEY ALSO MAY NOT
  REPORT WEATHER SUCH AS PRECIPITATION OR FOG.

INZ001>027-191600-
NORTHERN INDIANA

CITY           SKY/WX    TMP DP  RH WIND       PRES   REMARKS
GARY*          SUNNY     48  39  71 CALM      30.05R
VALPARAISO     SUNNY     50  43  77 E5        30.05R
MICHIGAN CITY* SUNNY     46  39  76 CALM      30.05S
LAPORTE*       SUNNY     51  38  60 CALM      30.05R
KNOX*          MOSUNNY   37  32  81 CALM      30.06R
SOUTH BEND     SUNNY     49  38  65 W5        30.05R
ELKHART*       SUNNY     46  37  71 CALM      30.04R
GOSHEN         SUNNY     47  39  74 W3        30.05R
MONTICELLO*    CLOUDY    44  43  95 SW5       30.06R FOG
LOGANSPORT*    CLOUDY    43  43 100 SW7       30.08R FOG
ROCHESTER*     FOG       43 N/A N/A SW7       30.07R VSB 1/4
WARSAW*        FOG       39  39 100 SW3       30.06R VSB 3/4
ANGOLA*        SUNNY     48  41  76 NW7       30.03R
FORT WAYNE     FOG       45  43  93 W9        30.05R VSB 1
HUNTINGTON*    CLOUDY    45  44  96 SW9       30.05R FOG
PERU/GRISSOM   CLOUDY    46  46 100 SW6       30.06R FOG
MARION*        CLOUDY    46  44  93 W8        30.08R FOG

$$
INZ028>050-191600-
CENTRAL INDIANA

CITY           SKY/WX    TMP DP  RH WIND       PRES   REMARKS
LAFAYETTE      CLOUDY    48  45  89 SW5       30.07R FOG
KOKOMO*        CLOUDY    47  44  90 W8        30.08R FOG
MUNCIE*        CLOUDY    49  44  83 W7        30.07R HAZE
INDIANAPOLIS   CLOUDY    50  45  83 W6        30.08R HAZE

$$
MIZ043>046-050>051-056>058-064>065-071>073-077>080-191600-
SOUTHWEST LOWER MICHIGAN

CITY           SKY/WX    TMP DP  RH WIND       PRES   REMARKS
BATTLE CREEK   SUNNY     47  35  63 NW6       30.02R
BENTON HARBOR  SUNNY     46  37  71 W3        30.04R
COLDWATER*     SUNNY     47  37  69 W5        30.02R
HILLSDALE*     SUNNY     45  36  70 W7        30.00R
HOLLAND        SUNNY     48  35  60 NW5       30.02R
GRAND RAPIDS   MOSUNNY   46  35  65 NW6       30.02R
KALAMAZOO      SUNNY     49  34  56 W6        30.03R
STURGIS*       SUNNY     46  37  70 CALM      30.02R
THREE RIVERS*  FAIR      48  36  62 NW3       30.03R

$$
OHZ001>008-015>018-024>025-191600-
NORTHWEST OHIO

CITY           SKY/WX    TMP DP  RH WIND       PRES   REMARKS
WAUSEON*       FAIR      48  41  76 W9        30.00S
DEFIANCE       SUNNY     46  41  82 SW6       30.03R
FINDLAY        CLOUDY    47  43  86 SW10      30.01R FOG
TOLEDO EXPRESS MOSUNNY   48  39  71 W10       29.99R
TOLEDO METCALF MOSUNNY   50  41  71 W9        30.00R
LIMA           CLOUDY    47  46  97 SW10      30.03R FOG

$$
AND FOR LAKE MICHIGAN COASTAL AND OPEN LAKE BUOY OBSERVATIONS

STATION/POSITION TEMP    WIND        PRES    VSBY  WAVE
                 AIR SEA DIR/SP/G                  HT/PER
                 (F)     (DEG/KT/KT) (MB)    (MI)  (FT/S)
CALUMET HARBOR    56      CALM  /  1 1016.7R
MICHIGAN CITY     45     190/  3/  4   N/A
BURNS HARBOR      47     210/  1/  2 1017.9R
SAINT JOSEPH      41     200/  6/  8 1018.3

$$
&&




USA.gov is the U.S. government's official web portal to all federal, state and local government web resources and services.